Simultaneous Nadir Overpasses (SNOs) Predictions

Prediction of SNOs between AQUA and METOP-B Satellite Orbit:

Table of predicted SNOs for the next 14.0 days since TLE Epoch: 9/10/2022
Index Date (AQUA) Time (AQUA) Lat,Lon (AQUA) SZA (AQUA ) Date (METOP-B) Time (METOP-B) Lat,Lon (METOP-B) SZA (METOP-B ) Distance(km) Time Diff (sec)
1 09/12/2022 04:15:59 -74.05, -69.21 110.19 09/12/2022 04:14:49 -74.04, -69.15 110.20 2.47 70
2 09/12/2022 05:05:26 74.07, 98.39 69.85 09/12/2022 05:05:28 74.09, 98.31 69.87 3.32 2
3 09/12/2022 05:54:54 -74.21, -94.28 110.00 09/12/2022 05:56:07 -74.21, -94.06 110.00 6.82 73
4 09/14/2022 23:49:30 -74.08, -2.63 109.09 09/14/2022 23:49:08 -74.09, -2.61 109.07 1.32 22
5 09/15/2022 00:38:58 74.15, 164.85 71.01 09/15/2022 00:39:47 74.13, 164.84 70.99 1.77 49
6 09/17/2022 18:33:33 74.05,-103.56 71.95 09/17/2022 18:32:46 74.05,-103.61 71.96 1.56 47
7 09/17/2022 19:23:00 -74.13, 63.89 107.95 09/17/2022 19:23:26 -74.14, 63.92 107.95 0.98 26
8 09/20/2022 13:17:36 -74.05, 155.44 106.98 09/20/2022 13:16:26 -74.05, 155.47 106.97 0.98 70
9 09/20/2022 14:07:04 74.13, -37.10 73.12 09/20/2022 14:07:04 74.14, -36.98 73.13 3.81 0
10 09/20/2022 14:56:31 -74.21, 130.36 106.79 09/20/2022 14:57:44 -74.23, 130.56 106.78 6.41 73
11 09/23/2022 08:51:06 -74.10,-138.03 105.84 09/23/2022 08:50:45 -74.09,-138.03 105.85 1.37 21
12 09/23/2022 09:40:34 74.18, 29.42 74.27 09/23/2022 09:41:23 74.17, 29.51 74.25 2.98 49



Historial Predications of SNOs between AQUA and METOP-B
